Regional Weather Roundup
Issued by NWS

Home | Current Version | Previous Version | Graphics & Text | Print | Product List | Glossary On
Versions: 1 2 3 4 5 6 7 8 9 10 11 12 13 14 15 16 17 18 19 20 21 22 23 24 25 26 27 28 29 30 31 32 33 34 35 36 37 38 39 40 41 42 43 44 45 46 47 48 49 50
000
ASUS44 KMEG 271810
RWRTN
TENNESSEE HOURLY STATE WEATHER ROUNDUP
NATIONAL WEATHER SERVICE MEMPHIS TN
100 PM CDT WED MAY 27 2015

TNZ002-004-019-021-049-052-054-088>092-271900-
WEST TENNESSEE

CITY           SKY/WX    TMP DP  RH WIND       PRES   REMARKS
MEMPHIS INTL   CLOUDY    77  65  66 W7        30.17S
NWS MEMPHIS      N/A     75 N/A N/A MISG        N/A
JACKSON        FAIR      78  67  68 SW8       30.17R
DYERSBURG      PTSUNNY   68  54  60 CALM      30.16F
PARIS            N/A    N/A N/A N/A S6        30.22R
LEXINGTON      MOSUNNY   79  66  65 SW7       30.16R
$$

TNZ008-025-027-028-033-062-065-066-271900-
NORTH MIDDLE TENNESSEE

CITY           SKY/WX    TMP DP  RH WIND       PRES   REMARKS
NASHVILLE      CLOUDY    82  68  62 S9        30.16F
CLARKSVILLE    MOSUNNY   77  69  76 SW13      30.16R
SMYRNA         PTSUNNY   81  70  69 VRB6      30.16F THUNDER
COOKEVILLE     MOSUNNY   82  68  61 SW8       30.19F
CROSSVILLE     MOSUNNY   77  60  55 W5        30.25F
$$

TNZ061-075-076-078-094-096-097-271900-
SOUTH MIDDLE TENNESSEE

CITY           SKY/WX    TMP DP  RH WIND       PRES   REMARKS
FAYETTEVILLE   SUNNY    N/A N/A N/A MISG      30.20F
TULLAHOMA      MOSUNNY   81  66  61 S7        30.21F
WINCHESTER     MOSUNNY   84  64  51 VRB3      30.20F
MCMINNVILLE    MOSUNNY   82  68  61 VRB6      30.20F
COLUMBIA       PTSUNNY   81  72  74 S8        30.16S
SHELBYVILLE    MOSUNNY   82  70  65 SW9       30.20F
$$

TNZ017-018-042-046-047-271900-
NORTHEAST TENNESSEE

CITY           SKY/WX    TMP DP  RH WIND       PRES   REMARKS
TRI CITIES     MOSUNNY   80  58  46 NW3       30.23F
ELIZABETHTON   CLEAR     79  59  50 CALM      30.24F
$$

TNZ012-013-036-069-073-074-271900-
CENTRAL EAST TENNESSEE

CITY           SKY/WX    TMP DP  RH WIND       PRES   REMARKS
KNOXVILLE      PTSUNNY   80  59  48 W9G18     30.22F
OAK RIDGE      PTSUNNY   80  63  55 VRB5      30.24F
GATLINBURG     MOCLDY    81  61  50 NW9       30.21F
MORRISTOWN     PTCLDY    79  61  53 W8        30.24F
$$

TNZ083-085-099-271900-
SOUTHEAST TENNESSEE

CITY           SKY/WX    TMP DP  RH WIND       PRES   REMARKS
CHATTANOOGA    MOSUNNY   79  65  62 E7        30.22F
$$

SKY/WX REPORTED AS FAIR MEANS FEW OR NO CLOUDS BELOW
12 THOUSAND FEET.



USA.gov is the U.S. government's official web portal to all federal, state and local government web resources and services.